www.pogodaiklimat.ru

Погода и климат >> Архив погоды >> Бельгия >> Spa


ПОГОДА в Spa

  • Прогноз погоды в Spa
  • Монитор погоды в Spa
  • Климат города

АРХИВ ПОГОДЫ в Spa

Время (UTC), дата Ветер
(напр.,м/с)
 
Видим.   Явления Облачность Т
(С)
Тd
(С)
f
(%)
Тe
(С)
Тes
(С)
Комфортность P
(гПа)
Po
(гПа)
Тmin
(С)
Tmax
(С)
R
(мм)
R24
(мм)
S
(см)
13 11.10 Ю 4
{12}
40 км ясно +19.5 +10.6 56 +21 +24 комфорт 1011.5 957.2
14 11.10 Ю 5
{11}
40 км ясно +20.5 +10.6 53 +22 +24 комфорт 1011.2 957.1
15 11.10 Ю 6
{12}
35 км ясно +19.9 +10.0 53 +21 +22 комфорт 1011.2 957.0
16 11.10 Ю 5
{10}
40 км ясно +19.3 +10.0 55 +20 +20 1011.8 957.5
17 11.10 Ю 4
{9}
45 км ясно +17.9 +9.2 57 +18 +18 1012.5 957.9
18 11.10 ЮВ 4
{12}
45 км ясно +16.9 +9.0 60 +16 +16 1013.2 958.3 +21.0
19 11.10 ЮВ 5
{8}
40 км ясно +16.7 +9.5 62 +16 +16 1013.5 958.6
20 11.10 Ю 5
{9}
40 км ясно +15.7 +9.2 65 +15 +15 1014.0 958.8
21 11.10 Ю 6
{9}
45 км ясно +15.7 +9.6 67 +14 +14 1014.1 958.9
22 11.10 ЮВ 5
{9}
40 км ясно +15.3 +9.5 68 +14 +14 1014.1 958.9
23 11.10 Ю 6
{9}
45 км ясно +15.0 +9.4 69 +13 +13 1015.3 960.0
00 12.10 Ю 5
{10}
45 км ясно +15.6 +10.4 71 +14 +14 1015.6 960.4
01 12.10 Ю 5
{8}
45 км 1/0 2000 м
[]
+14.8 +10.0 73 +13 +13 1016.0 960.7
02 12.10 Ю 5
{8}
45 км ясно +14.7 +10.1 74 +13 +13 1016.2 960.8
03 12.10 Ю 5
{8}
45 км ясно +14.1 +10.1 77 +12 +12 1016.6 961.1
04 12.10 Ю 5
{9}
45 км ясно +14.1 +10.4 78 +12 +12 1017.1 961.5
05 12.10 Ю 5
{9}
45 км ясно +13.8 +10.3 79 +12 +12 1018.0 962.4
06 12.10 Ю 6
{9}
35 км ясно +13.1 +9.8 80 +11 +11 1018.8 963.0 +13.0
07 12.10 Ю 6
{10}
35 км 6/6 1410 м
[]
+14.0 +10.8 81 +12 +12 1019.5 963.8
08 12.10 Ю 5
{9}
45 км 5/5 1170 м
[]
+14.7 +11.0 78 +13 +13 1019.9 964.3
09 12.10 Ю 6
{10}
45 км 1/0 2000 м
[]
+15.6 +11.4 76 +14 +15 1020.3 964.9
10 12.10 Ю 5
{9}
40 км ясно +19.0 +12.4 66 +20 +22 1019.7 964.9
11 12.10 Ю 6
{12}
35 км ясно +19.8 +12.1 61 +21 +23 комфорт 1019.2 964.6
12 12.10 Ю 6
{12}
28 км ясно +21.0 +12.4 58 +23 +25 комфорт 1019.4 965.0
13 12.10 Ю 6
{11}
35 км ясно +21.0 +12.0 56 +23 +25 комфорт 1019.3 964.9
14 12.10 Ю 5
{10}
35 км ясно +21.6 +12.5 56 +24 +26 комфорт 1019.4 965.1
15 12.10 Ю 5
{11}
35 км ясно +20.9 +12.6 59 +23 +24 комфорт 1019.6 965.2
16 12.10 Ю 4
{8}
45 км ясно +20.4 +12.4 60 +23 +23 комфорт 1019.7 965.2
17 12.10 Ю 4
{7}
40 км ясно +19.1 +11.9 63 +20 +20 1020.2 965.4
18 12.10 Ю 4
{11}
40 км ясно +18.3 +11.5 65 +18 +18 1020.8 965.8 +21.8
19 12.10 Ю 3
{6}
45 км ясно +17.8 +11.3 66 +18 +18 1021.2 966.1
20 12.10 Ю 5
{7}
45 км ясно +17.6 +11.3 67 +17 +17 1021.4 966.2
21 12.10 Ю 4
{7}
45 км ясно +17.4 +11.3 67 +17 +17 1021.5 966.4
22 12.10 Ю 4
{6}
45 км ясно +17.1 +11.1 68 +17 +17 1021.6 966.4
23 12.10 ЮВ 5
{7}
45 км 3/3 1500 м
[]
+16.7 +11.0 69 +16 +16 1021.5 966.2
00 13.10 ЮВ 6
{8}
45 км ясно +16.5 +11.1 70 +15 +15 1021.3 965.9
01 13.10 ЮВ 6
{8}
45 км 1/1 1500 м
[]
+16.4 +11.1 71 +15 +15 1021.4 966.1
02 13.10 ЮВ 5
{8}
40 км ясно +15.7 +10.8 73 +15 +15 1021.4 965.9
03 13.10 ЮВ 6
{8}
40 км ясно +15.7 +10.9 73 +14 +14 1021.5 966.0
04 13.10 Ю 6
{8}
45 км ясно +15.8 +11.0 73 +14 +14 1021.4 965.9
07 13.10 ЮВ 7
{10}
35 км ясно +14.8 +11.1 78 +13 +13 1020.8 965.2
08 13.10 ЮВ 7
{11}
30 км ясно +15.7 +11.5 76 +14 +14 1020.7 965.3
09 13.10 ЮВ 6
{11}
30 км ясно +17.9 +12.5 71 +17 +18 1020.2 965.2
11 13.10 ЮВ 5
{9}
40 км ясно +21.3 +12.3 56 +23 +26 комфорт 1018.6 964.3
10 13.10 Ю 5
{9}
30 км ясно +19.6 +12.8 65 +21 +23 комфорт 1019.5 964.9
12 13.10 Ю 6
{11}
35 км ясно +22.4 +11.0 48 +24 +27 комфорт 1017.6 963.5
13 13.10 Ю 6
{11}
30 км ясно +22.8 +10.8 47 +25 +27 комфорт 1016.9 962.9
14 13.10 Ю 6
{10}
30 км ясно +23.0 +10.7 46 +25 +26 комфорт 1016.2 962.3
15 13.10 Ю 6
{11}
40 км ясно +22.5 +9.6 44 +24 +25 комфорт 1015.6 961.6
17 13.10 Ю 6
{10}
45 км ясно +20.2 +9.4 50 +21 +21 комфорт 1014.9 960.5
16 13.10 Ю 7
{10}
40 км ясно +21.5 +9.6 47 +23 +23 комфорт 1014.8 960.7
18 13.10 ЮВ 6
{11}
45 км ясно +19.5 +9.6 53 +20 +20 1014.9 960.5 +23.3
19 13.10 Ю 6
{10}
45 км ясно +18.9 +9.3 54 +19 +19 1014.7 960.1
20 13.10 Ю 5
{10}
45 км ясно +17.9 +9.0 56 +18 +18 1014.7 959.9
21 13.10 ЮВ 5
{10}
45 км ясно +17.4 +9.3 59 +17 +17 1014.7 959.8
23 13.10 ЮВ 4
{8}
45 км ясно +16.5 +9.1 62 +16 +16 1014.1 959.2
22 13.10 Ю 5
{7}
45 км ясно +16.8 +9.0 60 +16 +16 1014.6 959.6
00 14.10 ЮВ 4
{10}
40 км ясно +16.2 +9.4 64 +16 +16 1013.5 958.5
01 14.10 Ю 5
{8}
45 км ясно +15.0 +8.9 67 +14 +14 1013.4 958.2
02 14.10 ЮВ 5
{8}
40 км ясно +14.9 +8.9 67 +14 +14 1012.8 957.6
03 14.10 ЮВ 6
{8}
45 км ясно +14.8 +9.2 69 +13 +13 1012.1 956.9
05 14.10 Ю 7
{10}
35 км ясно +13.4 +8.8 74 +11 +11 1011.4 956.0
04 14.10 ЮВ 7
{9}
40 км ясно +14.1 +9.3 73 +12 +12 1011.7 956.5
06 14.10 Ю 5
{10}
40 км ясно +13.3 +8.8 74 +11 +11 1011.4 955.9 +13.3
07 14.10 Ю 4
{8}
40 км ясно +14.4 +9.4 72 +13 +13 1011.3 956.1
08 14.10 Ю 4
{7}
35 км ясно +15.6 +10.4 71 +15 +16 1011.0 956.1
09 14.10 Ю 5
{9}
30 км ясно +17.6 +8.0 53 +17 +19 1010.4 955.8
11 14.10 Ю 7
{15}
40 км ясно +20.7 +8.1 44 +22 +23 комфорт 1009.1 955.1
10 14.10 Ю 7
{13}
35 км ясно +19.3 +8.5 50 +20 +21 1009.7 955.5
12 14.10 Ю 7
{15}
30 км ясно +21.0 +7.6 42 +22 +23 комфорт 1008.9 955.0
13 14.10 Ю 7
{15}
40 км ясно +21.5 +8.0 42 +23 +24 комфорт 1007.9 954.2
14 14.10 Ю 7
{14}
40 км ясно +21.8 +7.7 40 +23 +24 комфорт 1007.8 954.1
15 14.10 Ю 5
{15}
35 км ясно +22.0 +7.9 40 +23 +24 комфорт 1007.9 954.2
17 14.10 Ю 4
{9}
45 км ясно +19.6 +6.4 42 +20 +20 1008.5 954.4
16 14.10 Ю 5
{12}
40 км ясно +21.0 +7.3 41 +22 +22 комфорт 1007.9 954.0
18 14.10 Ю 6
{15}
45 км ясно +18.6 +6.3 45 +18 +18 1008.9 954.5 +22.3
19 14.10 Ю 7
{10}
45 км ясно +18.2 +6.3 46 +18 +18 1009.1 954.7
20 14.10 ЮВ 7
{10}
45 км ясно +17.8 +5.9 46 +17 +17 1009.5 955.0
21 14.10 Ю 5
{10}
45 км ясно +16.7 +5.1 46 +16 +16 1010.2 955.4
23 14.10 Ю 6
{10}
45 км ясно +16.5 +4.9 46 +15 +15 1010.5 955.7
22 14.10 ЮВ 4
{8}
45 км ясно +15.5 +4.5 48 +15 +15 1010.6 955.6
00 15.10 Ю 5
{10}
45 км 10/0 2000 м
[]
+16.5 +5.2 47 +16 +16 1010.9 956.1
01 15.10 Ю 5
{8}
45 км ясно +16.6 +5.7 48 +16 +16 1010.8 956.0
02 15.10 Ю 4
{8}
45 км ясно +16.2 +5.6 49 +16 +16 1010.9 956.0
03 15.10 Ю 5
{8}
40 км ясно +15.4 +5.3 51 +14 +14 1010.7 955.7
05 15.10 Ю 5
{10}
40 км ясно +15.1 +5.9 54 +14 +14 1011.5 956.4
04 15.10 Ю 6
{10}
40 км ясно +15.3 +5.7 53 +14 +14 1010.9 955.9
06 15.10 Ю 5
{10}
45 км ясно +14.8 +5.9 55 +13 +13 1012.1 956.9 +14.7
07 15.10 Ю 5
{8}
40 км ясно +15.4 +6.2 54 +14 +14 1012.6 957.5
08 15.10 Ю 4
{8}
40 км ясно +16.1 +6.5 53 +15 +16 1013.0 957.9
09 15.10 Ю 4
{8}
30 км ясно +17.4 +7.2 51 +17 +19 1013.2 958.4
11 15.10 Ю 4
{8}
40 км ясно +19.8 +6.4 42 +21 +24 комфорт 1013.1 958.8
10 15.10 Ю 4
{8}
35 км ясно +18.7 +7.2 47 +19 +22 1013.2 958.6
12 15.10 Ю 5
{8}
35 км ясно +20.8 +6.9 41 +22 +25 комфорт 1012.9 958.7
13 15.10 ЮЗ 3
{7}
40 км ясно +21.6 +6.2 37 +22 +26 комфорт 1012.7 958.7
14 15.10 З 3
{6}
35 км ясно +21.8 +5.8 35 +22 +25 комфорт 1012.6 958.6
15 15.10 З 3
{7}
35 км ясно +21.0 +6.1 38 +22 +24 комфорт 1013.1 958.9
17 15.10 Ю 1
{2}
45 км ясно +15.9 +5.4 50 +17 +17 1015.1 959.9
16 15.10 нст 1
{5}
35 км ясно +19.8 +6.6 42 +22 +22 комфорт 1013.8 959.4
18 15.10 Ю 1
{7}
45 км ясно +14.2 +4.7 53 +15 +15 1016.0 960.4 +22.1
19 15.10 Ю 1
{3}
40 км ясно +13.5 +4.7 55 +14 +14 1016.2 960.5
20 15.10 ЮВ 3
{4}
40 км ясно +12.9 +4.9 58 +12 +12 1016.5 960.7
21 15.10 ЮВ 2
{4}
45 км ясно +12.9 +5.4 60 +12 +12 1016.9 961.0
23 15.10 ЮВ 4
{5}
45 км ясно +14.4 +6.6 59 +13 +13 1016.8 961.2
22 15.10 ЮВ 4
{4}
45 км ясно +14.0 +5.9 58 +13 +13 1016.7 961.1
00 16.10 ЮВ 5
{6}
45 км ясно +15.4 +6.6 56 +14 +14 1016.9 961.5
01 16.10 ЮВ 5
{6}
40 км ясно +15.6 +6.6 55 +15 +15 1017.2 961.9
02 16.10 ЮВ 4
{6}
40 км ясно +15.2 +6.0 54 +14 +14 1017.6 962.1
03 16.10 Ю 5
{6}
45 км ясно +15.2 +6.5 56 +14 +14 1017.6 962.1
05 16.10 Ю 4
{6}
45 км ясно +13.4 +5.8 60 +12 +12 1018.4 962.6
04 16.10 Ю 4
{6}
45 км ясно +13.6 +5.7 59 +12 +12 1018.2 962.4
06 16.10 Ю 4
{6}
45 км ясно +13.2 +5.8 61 +12 +12 1018.6 962.7 +12.8
07 16.10 ЮВ 4
{5}
45 км ясно +15.6 +7.0 57 +15 +15 1018.6 963.1
08 16.10 ЮВ 3
{4}
40 км ясно +18.1 +9.3 56 +18 +19 1018.5 963.6
09 16.10 ЮВ 3
{5}
30 км ясно +20.5 +10.9 54 +23 +25 комфорт 1018.2 963.8
11 16.10 ЮВ 4
{6}
40 км ясно +21.4 +7.5 41 +22 +26 комфорт 1018.2 963.9
10 16.10 ЮВ 3
{5}
40 км ясно +20.8 +9.2 47 +23 +26 комфорт 1018.4 963.9
12 16.10 Ю 3
{6}
30 км ясно +21.7 +7.1 39 +23 +27 комфорт 1018.0 963.7
13 16.10 ЮВ 3
{5}
45 км ясно +21.8 +6.6 37 +23 +26 комфорт 1017.9 963.7
14 16.10 ЮВ 2
{4}
35 км ясно +21.4 +6.4 38 +22 +25 комфорт 1018.0 963.6
15 16.10 ЮВ 2
{5}
40 км ясно +21.4 +6.6 38 +22 +23 комфорт 1017.9 963.6
17 16.10 Ю 2
{2}
40 км ясно +16.3 +4.7 46 +17 +17 1019.2 963.8
16 16.10 Ю 1
{4}
40 км ясно +19.9 +6.6 42 +22 +22 комфорт 1018.2 963.5
18 16.10 Ю 2
{5}
45 км ясно +14.5 +4.0 49 +14 +14 1019.8 964.1 +22.9
19 16.10 ЮВ 3
{3}
40 км ясно +13.7 +4.8 55 +13 +13 1020.3 964.4
20 16.10 ЮВ 3
{4}
40 км ясно +15.0 +5.4 53 +14 +14 1020.1 964.5
21 16.10 ЮВ 4
{5}
40 км ясно +15.1 +5.6 53 +14 +14 1020.1 964.4
23 16.10 Ю 5
{7}
40 км ясно +14.9 +6.4 57 +14 +14 1019.5 963.9
22 16.10 ЮВ 5
{6}
40 км ясно +15.1 +6.5 56 +14 +14 1019.9 964.3
00 17.10 ЮВ 4
{7}
40 км ясно +15.1 +6.5 56 +14 +14 1019.4 963.9
01 17.10 ЮВ 5
{6}
40 км ясно +14.4 +6.3 58 +13 +13 1019.3 963.6
02 17.10 ЮВ 4
{7}
45 км ясно +14.2 +6.1 58 +13 +13 1019.1 963.4
03 17.10 ЮВ 5
{7}
40 км ясно +13.5 +6.0 60 +12 +12 1019.1 963.3
05 17.10 Ю 4
{6}
40 км ясно +14.7 +6.9 59 +14 +14 1018.9 963.3
04 17.10 Ю 4
{6}
40 км ясно +13.9 +6.6 61 +13 +13 1019.1 963.3
06 17.10 Ю 3
{7}
40 км ясно +12.4 +6.0 65 +11 +11 1019.4 963.4 +12.4
07 17.10 ЮВ 2
{4}
35 км ясно +11.6 +5.6 67 +11 +11 1020.0 963.7
08 17.10 штиль 0
{3}
30 км ясно +14.6 +7.9 64 +14 +16 1019.3 963.7
09 17.10 ЮВ 1
{4}
30 км ясно +17.5 +10.7 64 +19 +21 1019.0 963.9
11 17.10 нст 1
{3}
30 км ясно +18.5 +9.2 55 +20 +26 1019.0 964.2
10 17.10 С 2
{3}
35 км ясно +17.1 +9.5 61 +17 +21 1019.4 964.2
12 17.10 С 1
{4}
35 км ясно +19.0 +7.8 48 +21 +26 комфорт 1018.6 963.8
13 17.10 С 2
{3}
23 км ясно +19.4 +8.6 50 +21 +25 комфорт 1018.2 963.5
14 17.10 С 2
{4}
16 км ясно +19.4 +9.6 53 +21 +24 комфорт 1018.0 963.3
15 17.10 С 2
{4}
15 км ясно +18.6 +9.4 55 +20 +21 1018.2 963.3
17 17.10 С 2
{4}
н/о ясно +14.1 +8.1 67 +14 +14 1019.7 963.9
16 17.10 С 2
{4}
9000 м ясно +16.7 +10.2 65 +17 +17 1018.8 963.6
18 17.10 СВ 1
{4}
5000 м дымка ясно +13.7 +7.5 66 +14 +14 1020.1 964.3 +19.7
19 17.10 В 1
{3}
5000 м дымка ясно +13.3 +7.7 69 +14 +14 1020.7 964.8
20 17.10 СВ 2
{3}
4900 м дымка ясно +12.6 +7.6 72 +12 +12 1021.2 965.1
21 17.10 СВ 2
{3}
3700 м дымка ясно +12.5 +8.2 75 +12 +12 1021.4 965.2
23 17.10 В 1
{2}
2500 м дымка ясно +11.5 +7.6 77 +11 +11 1021.8 965.4
22 17.10 штиль 0
{2}
2800 м дымка ясно +11.9 +7.8 76 +11 +11 1021.7 965.4
00 18.10 ЮВ 1
{3}
1800 м дымка ясно +11.2 +7.9 80 +11 +11 1021.7 965.3
01 18.10 штиль 0
{1}
800 м туман {дымка} 10/10 30 м
[]
+11.1 +9.2 88 +10 +10 1021.7 965.3
02 18.10 С 1
{2}
<100 м туман ?/? +11.0 +9.4 90 +11 +11 1021.9 965.5
03 18.10 С 2
{3}
<100 м слаб. дождь {туман, дымка} ?/? +11.0 +10.3 95 +10 +10 1022.0 965.6
05 18.10 С 2
{5}
100 м туман {морось} ?/? +11.3 +10.6 95 +10 +10 1022.2 965.8
04 18.10 СВ 2
{4}
100 м слаб. морось ?/? +11.1 +10.6 97 +10 +10 1022.1 965.7
06 18.10 СВ 3
{5}
100 м туман {морось, дымка} ?/? +11.1 +10.6 97 +9 +9 1022.6 966.2 +10.7
07 18.10 СВ 2
{5}
100 м туман ?/? +11.1 +10.5 96 +10 +10 1023.1 966.6
08 18.10 В 2
{4}
1700 м в посл. час туман ясно +11.8 +10.5 92 +11 +12 1022.9 966.6
09 18.10 СВ 2
{5}
1300 м в посл. час туман 10/10 60 м
[]
+11.9 +10.8 93 +11 +11 1023.3 967.0
11 18.10 С 2
{5}
1100 м дымка 10/10 60 м
[]
+11.8 +10.5 92 +11 +11 1023.6 967.3
10 18.10 СВ 2
{5}
3300 м дымка {туман} 8/8 270 м
[]
+12.9 +10.5 85 +12 +13 1023.3 967.2

 

Местоположение метеостанции Spa (Бельгия): широта 50.48 долгота 5.92 высота над уровнем моря 482 м.

В архиве по умолчанию представлена погода в Spa за последнюю неделю. Архивные данные за месяц целиком и за предыдущие месяцы, начиная с января 2011 года, Вы можете получить, выбрав интересующий диапазон дат из раскрывающегося списка и нажав кнопку "Ввод!".


*Определитесь, кто Вы:
робот инопланетянин человек

Внимание! Время в таблицах - всемирное. Для получения местного времени необходимо прибавить поправку, которая в Spa равна 1 ч.

Смотрите также архив погоды в соседних городах и на ближайших метеорологических станциях:

Погода в Mont-Rigi (Бельгия) (12 км)
Погода в Elsenborn (Бельгия) (18 км)
Погода в Aachen-Orsbach (Германия) (34 км)
Погода в Bierset (Бельгия) (38 км)
Погода в Maastricht (Нидерланды) (50 км)
Погода в Geilenkirchen (Германия) (55 км)
Погода в Humain (Бельгия) (57 км)
Погода в Diepenbeek (Бельгия) (59 км)
Погода в Saint Hubert (Бельгия) (62 км)
Погода в Noervenich (Германия) (66 км)

Пояснения к столбцам:

Ветер - указаны скорость ветра в м/с - средняя за 10 мин, порывы в срок и между сроками (в фигурных скобках) и направление, откуда дует ветер: С - северный, СВ - северо-восточный, В - восточный, ЮВ - юго-восточный, Ю - южный, ЮЗ - юго-западный, З - западный, СЗ - северо-западный.
Видимость - горизонтальная дальность видимости в метрах или километрах. При видимости от 1 до 10 км при отсутствии осадков обычно наблюдается дымка, при ухудшении видимости до 1 км и менее - туман. В сухую погоду видимость может ухудшаться дымом, пылью или мглою.
Явления - указаны атмосферные явления, наблюдавшиеся в срок или в последний час перед сроком; фигурными скобками обозначены явления, наблюдавшиеся между сроками (за 1-3 часа до срока); квадратными скобками обозначены град или гололедные отложения с указанием их диаметра в мм.
Облачность - указаны через наклонную черту общая и нижняя облачность в баллах и высота нижней границы облаков в метрах; квадратными скобками обозначены формы облаков: Ci - перистые, Cs - перисто-слоистые, Cc - перисто-кучевые, Ac - высококучевые, As - высокослоистые, Sc - слоисто-кучевые, Ns - слоисто-дождевые, Cu - кучевые, Cb - кучево-дождевые. Подробнее классификацию облаков см. в Атласе облаков (PDF).
T - Температура воздуха - температура, измеренная на высоте 2 м над землей.
Td - Температура точки росы - температура, при понижении до которой содержащийся в воздухе водяной пар достигнет насыщения.
f - Относительная влажность воздуха - влажноcть воздуха, измеренная на высоте 2 м над землей.
Te - Эффективная температура - температура, которую ощущает одетый по сезону человек в тени. Характеристика душности погоды. При расчете учитывается влияние влажности воздуха и скорости ветра на теплоощущения человека.
Tes - Эффективная температура на солнце - температура, которую ощущает человек, с поправкой на солнечный нагрев. Характеристика знойности погоды. Зависит от высоты солнца над горизонтом, облачности и скорости ветра. Ночью, в пасмурную погоду, а также при ветре 12 м/с и более поправка равна нулю.
P - Атмосферное давление - приведенное к уровню моря атмосферное давление.
Po - Атмосферное давление - измеренное на уровне метеостанции атмосферное давление.
Tmin - Минимальная температура - минимум температуры воздуха на высоте 2 м над землей.
Tmax - Максимальная температура - максимум температуры воздуха на высоте 2 м над землей.
R - Количество осадков - Количество выпавших осадков за период времени, мм. При наведении курсора мыши на число - период времени, за который выпало указанное количество осадков.
R24 - Количество осадков - Количество выпавших осадков за 24 часа, мм.
S - Снежный покров - Высота снежного покрова, см. При наведении курсора мыши на число - состояние снежного покрова и степень покрытия местности в баллах.